Wind_Speed
36 35 33 32 31 30 30 30 31 30 26 23 27 31 29 22 20 27 37 45 50 51 59 53 45 50 44 47 68 52 52 54 46 39 39 43 46 47 46 46 46 44 41
37 36 33 32 30 29 29 29 30 30 27 21 22 29 30 28 23 21 29 38 47 46 49 58 58 53 52 49 50 74 57 42 53 56 39 34 41 45 44 46 47 45 44
36 35 33 30 29 29 29 30 30 30 26 22 19 23 27 30 24 18 23 30 39 47 46 48 50 47 51 59 54 40 59 55 58 45 58 40 36 46 46 46 48 45 45
34 33 33 31 29 29 28 29 29 28 26 23 20 20 23 27 28 21 22 26 32 37 44 51 49 47 42 42 45 50 46 59 62 54 61 55 52 53 52 48 49 48 47
33 32 32 31 29 28 28 27 27 26 24 22 19 19 21 22 27 23 21 23 32 32 38 45 51 51 50 46 48 50 53 54 65 61 58 63 62 61 62 57 52 50 48
33 32 31 30 30 30 29 29 27 24 23 21 18 18 19 20 22 23 21 20 25 33 37 41 48 46 50 46 46 50 49 57 50 73 64 61 55 58 58 65 60 56 54
32 31 30 30 31 31 31 30 28 25 22 20 18 17 18 19 18 23 17 18 21 27 33 46 47 50 50 48 48 49 51 46 53 53 67 58 53 58 55 64 66 62 59
32 31 29 29 30 30 30 30 29 26 24 22 20 19 18 18 19 16 23 14 14 20 27 47 45 55 48 53 53 48 57 54 57 57 70 61 54 50 55 57 62 62 63
32 30 30 29 29 29 29 29 29 28 26 24 23 21 20 19 18 16 16 19 10 13 20 32 40 52 48 55 50 49 55 60 55 59 57 53 63 52 52 50 64 61 63
32 31 30 30 30 29 29 27 27 27 26 26 24 23 21 21 19 17 14 16 16 9 11 24 34 42 51 54 55 58 52 56 64 64 60 61 56 53 55 56 58 63 62
31 31 30 29 29 28 27 27 25 25 24 24 24 23 21 20 20 18 16 13 14 15 7 7 19 31 38 44 52 50 51 49 59 65 60 60 65 62 61 62 63 62 68
30 30 29 28 28 27 26 26 25 24 23 23 23 23 22 20 19 18 17 15 13 13 15 9 4 16 26 35 47 48 58 54 62 54 54 52 54 61 63 66 66 76 64
29 28 29 28 28 27 26 25 25 24 24 23 24 24 24 22 20 17 15 14 11 10 12 16 11 3 16 25 30 41 53 58 54 59 53 52 48 48 59 62 69 71 69
29 28 27 27 27 26 26 25 25 25 25 24 24 26 26 24 21 18 17 16 15 12 9 6 11 12 7 8 18 26 36 42 55 56 54 53 53 50 45 56 74 79 68
28 28 27 26 26 25 25 26 26 27 27 27 26 27 27 27 26 24 22 20 19 18 15 11 5 7 10 13 5 7 15 24 30 36 43 48 50 49 53 49 51 68 70
28 28 28 26 26 25 23 22 24 25 26 27 27 26 27 27 26 24 21 19 17 17 17 13 9 4 3 6 8 11 12 8 16 22 27 33 35 40 45 49 50 52 57
30 28 27 27 25 24 23 22 20 21 23 23 24 24 24 24 23 23 22 19 17 14 13 13 12 10 8 5 2 3 4 10 10 11 16 22 24 31 34 38 41 43 46
30 29 28 27 26 24 23 22 21 20 19 19 21 22 23 22 22 21 20 18 16 15 14 13 13 13 12 8 7 5 2 2 4 8 9 12 16 20 25 26 28 33 38
31 30 29 27 26 25 23 22 21 20 20 19 18 19 20 21 22 20 19 19 19 17 16 15 13 12 12 11 9 8 7 4 3 3 5 7 10 13 17 21 25 26 29
31 31 30 28 26 24 23 22 21 20 19 19 19 18 19 19 20 21 21 19 19 20 19 16 15 13 11 10 9 8 7 7 7 6 6 5 7 10 12 14 17 21 25
32 32 32 30 28 25 24 23 21 20 20 19 19 19 19 19 20 20 21 20 19 18 19 19 17 16 14 12 11 10 10 8 8 6 6 6 7 8 10 11 13 16 17
32 32 31 30 28 26 25 24 22 21 20 19 18 19 19 19 18 18 18 19 19 19 18 18 18 17 17 15 13 12 11 10 9 8 8 8 7 7 8 10 11 12 15
31 31 30 29 27 26 25 24 23 22 20 19 19 19 19 19 19 18 17 17 17 17 18 17 17 16 16 16 16 14 12 11 10 9 8 8 8 9 8 9 10 11 12
31 30 29 28 26 25 25 24 23 22 21 20 19 19 18 18 19 19 19 18 16 16 16 17 17 17 16 15 15 14 14 13 12 13 11 10 10 10 10 10 10 12 12
30 29 28 27 25 24 24 24 23 23 22 22 20 19 18 18 18 18 19 19 18 18 17 16 15 15 15 15 14 13 13 13 13 12 12 12 11 12 12 12 12 12 13
28 28 27 26 26 25 25 25 24 24 23 22 22 21 19 19 18 19 19 19 19 19 18 18 18 16 15 15 14 14 13 12 12 12 12 11 10 10 11 12 13 14 14
Wind_Direction
335 336 335 333 331 331 331 333 332 328 322 321 321 326 330 312 286 256 247 239 233 225 223 232 241 252 247 229 221 216 217 225 208 229 237 234 230 231 231 232 232 230 228
336 336 336 333 331 330 329 332 332 330 323 323 319 323 331 322 306 274 249 242 234 231 228 229 233 242 246 232 216 225 220 205 226 218 208 241 243 228 230 233 232 233 231
338 338 338 337 334 333 332 332 334 330 326 321 315 321 326 331 313 293 260 242 238 227 225 229 229 229 233 234 246 241 222 220 220 223 226 209 240 237 224 230 232 231 232
341 342 342 343 340 339 338 333 335 331 328 324 323 321 326 331 322 301 275 249 236 239 220 218 227 228 231 237 238 239 233 227 219 226 229 228 223 237 233 225 231 230 230
345 347 346 346 348 349 344 337 337 335 333 327 323 318 326 326 331 311 279 256 238 237 234 232 227 227 230 230 228 232 228 237 228 228 226 226 230 232 239 230 228 231 228
349 350 349 350 355 358 354 346 341 339 337 331 326 322 327 325 331 329 302 268 247 239 237 234 223 229 228 225 227 225 221 222 228 222 227 225 229 232 235 239 230 226 230
350 352 353 357 360 3 359 355 348 347 347 342 335 327 328 322 325 339 327 294 266 242 236 231 234 233 229 231 229 227 217 221 223 227 226 223 233 228 232 239 235 231 230
351 353 356 359 360 1 359 360 357 356 355 352 345 340 339 327 323 336 340 332 289 262 238 228 238 232 235 230 234 229 219 220 225 222 222 230 235 229 233 242 244 241 237
350 354 358 360 1 1 1 2 2 2 0 358 351 346 344 335 329 327 336 337 338 280 255 235 236 230 238 234 233 228 227 220 224 223 221 223 228 233 235 237 241 242 243
349 356 357 360 0 2 2 3 4 3 3 359 354 349 346 342 339 334 331 339 337 348 274 255 237 234 243 240 239 232 224 225 232 224 224 224 227 234 232 234 236 241 244
352 355 357 358 359 2 2 3 5 5 5 4 358 353 353 346 345 340 333 332 335 342 354 245 240 240 242 248 231 227 223 228 231 231 228 232 228 221 229 231 236 241 244
353 352 356 357 358 1 3 4 4 5 6 8 7 1 4 358 354 345 338 333 336 336 337 351 214 220 223 232 235 236 230 228 223 234 231 237 234 228 229 233 232 234 235
353 352 353 357 356 357 3 4 5 6 9 8 10 9 8 11 6 359 349 343 342 327 326 336 350 6 217 214 212 216 223 227 226 231 238 237 231 238 232 226 233 241 235
354 352 352 354 356 356 358 3 4 7 10 11 9 12 10 12 13 13 15 13 2 357 345 335 340 344 346 220 210 202 207 212 222 231 231 233 238 237 236 236 234 236 238
354 352 351 352 354 357 356 358 4 4 6 8 12 10 9 11 14 16 15 19 14 10 10 1 342 343 333 328 321 219 204 199 207 215 227 234 235 235 235 232 235 231 233
354 353 351 349 349 354 357 357 358 5 4 6 8 11 8 9 8 11 15 14 14 13 7 13 6 10 332 318 329 324 318 241 207 210 216 218 221 227 234 238 239 237 237
352 352 350 348 347 348 353 355 356 2 4 5 6 6 9 9 9 10 10 8 11 13 16 20 25 32 37 358 14 291 300 298 303 295 234 223 223 224 229 231 232 236 239
349 348 349 348 346 345 347 352 352 352 358 6 6 7 7 9 8 12 11 9 11 11 18 27 30 26 36 31 16 12 7 301 250 259 279 288 279 250 234 234 235 235 236
349 348 347 347 346 343 343 346 349 350 348 353 1 6 9 9 9 11 11 12 15 16 17 19 23 32 32 34 29 24 4 353 326 299 261 257 262 265 275 275 256 247 240
348 348 348 347 347 344 341 341 344 348 349 346 348 356 2 6 9 9 12 15 14 16 20 16 16 15 15 20 26 21 23 10 359 342 313 289 267 264 265 265 266 271 277
350 349 348 349 348 346 343 340 340 343 347 349 347 344 350 358 3 6 9 9 15 15 15 18 18 13 12 7 5 6 6 5 9 356 337 320 306 288 274 267 267 269 266
350 350 348 347 346 345 343 341 340 341 342 344 348 349 346 343 348 356 1 5 7 8 10 12 13 14 11 7 4 1 360 354 355 351 345 339 329 316 301 290 277 270 270
349 349 347 346 346 344 344 343 342 341 341 342 343 347 348 349 349 346 346 351 356 359 3 3 4 6 8 9 6 1 357 353 349 345 340 332 333 331 322 305 295 288 285
348 349 347 346 346 345 345 345 345 343 341 341 341 343 345 348 348 349 352 350 344 343 348 351 356 357 357 358 0 3 360 356 353 348 344 337 327 323 324 322 317 305 295
347 347 346 345 346 346 345 343 344 345 343 341 340 340 341 343 344 343 344 345 348 349 344 338 338 342 346 346 348 348 353 356 353 350 346 337 331 325 326 327 322 319 313
345 345 345 343 343 345 344 341 339 337 337 338 337 338 337 337 337 337 338 338 337 338 341 342 340 336 331 331 335 337 338 336 337 342 343 341 331 326 323 321 325 325 321
Height
3053 3047 3041 3034 3028 3022 3016 3009 3003 2998 2994 2991 2986 2979 2974 2971 2970 2972 2974 2980 2987 2997 3007 3012 3017 3024 3037 3042 3052 3059 3071 3076 3085 3095 3100 3106 3111 3118 3123 3129 3134 3141 3147
3050 3043 3037 3030 3024 3018 3012 3005 3000 2994 2990 2986 2983 2976 2971 2966 2964 2965 2967 2970 2977 2986 2996 3003 3012 3018 3026 3037 3041 3047 3060 3067 3076 3083 3094 3098 3100 3108 3116 3120 3126 3132 3138
3047 3040 3034 3027 3020 3014 3008 3001 2995 2990 2986 2982 2979 2974 2968 2963 2960 2960 2961 2963 2968 2976 2985 2994 3002 3011 3017 3025 3031 3040 3047 3056 3063 3073 3081 3091 3093 3096 3104 3111 3115 3123 3129
3045 3037 3030 3024 3017 3011 3005 2999 2992 2987 2983 2978 2974 2971 2966 2961 2955 2952 2953 2954 2959 2964 2973 2983 2990 2998 3007 3012 3019 3029 3037 3044 3053 3061 3069 3077 3085 3086 3092 3101 3105 3112 3119
3042 3035 3028 3022 3015 3008 3003 2996 2990 2985 2980 2976 2972 2968 2964 2960 2955 2950 2948 2948 2950 2955 2962 2971 2977 2984 2991 2997 3005 3015 3025 3031 3040 3046 3055 3064 3071 3078 3078 3089 3097 3105 3112
3041 3034 3027 3020 3014 3007 3000 2994 2988 2983 2978 2974 2970 2966 2961 2958 2955 2949 2944 2943 2943 2947 2953 2960 2967 2973 2980 2986 2995 3003 3010 3018 3024 3035 3044 3049 3059 3068 3072 3076 3086 3092 3097
3039 3033 3026 3019 3013 3007 3000 2993 2986 2981 2977 2972 2968 2965 2960 2957 2954 2949 2944 2941 2940 2941 2945 2952 2957 2962 2968 2975 2984 2991 2999 3004 3013 3021 3031 3038 3050 3057 3066 3067 3073 3082 3088
3038 3032 3026 3019 3013 3007 3000 2993 2986 2980 2975 2971 2967 2962 2959 2956 2952 2949 2944 2939 2936 2936 2938 2943 2947 2953 2958 2964 2973 2980 2989 2991 3002 3007 3015 3029 3036 3046 3054 3060 3066 3075 3080
3037 3031 3025 3019 3012 3007 3000 2993 2986 2980 2975 2971 2966 2962 2957 2955 2951 2948 2944 2939 2934 2932 2931 2935 2941 2945 2949 2957 2965 2969 2977 2985 2986 2995 3003 3016 3025 3032 3041 3048 3050 3056 3059
3036 3030 3024 3018 3013 3007 3000 2994 2988 2982 2976 2971 2966 2961 2957 2953 2950 2947 2943 2939 2934 2930 2929 2930 2934 2937 2941 2948 2952 2957 2966 2972 2977 2984 2991 3001 3012 3019 3026 3032 3040 3041 3047
3036 3030 3024 3018 3013 3007 3001 2995 2990 2984 2979 2973 2967 2962 2957 2953 2948 2945 2941 2937 2935 2930 2928 2929 2929 2931 2933 2938 2942 2948 2955 2960 2967 2975 2982 2989 2996 3003 3012 3018 3024 3028 3031
3036 3030 3024 3018 3013 3008 3002 2997 2991 2986 2980 2975 2969 2963 2958 2952 2947 2943 2939 2936 2932 2929 2927 2926 2925 2926 2928 2929 2933 2939 2944 2951 2956 2963 2972 2977 2982 2988 2995 3001 3007 3013 3019
3036 3030 3024 3018 3012 3007 3003 2997 2992 2987 2981 2976 2971 2964 2958 2953 2948 2943 2939 2934 2931 2928 2926 2923 2921 2921 2922 2924 2927 2929 2934 2940 2945 2954 2960 2965 2970 2974 2978 2986 2993 2997 3006
3035 3029 3023 3018 3013 3007 3002 2997 2992 2987 2982 2977 2971 2966 2960 2954 2949 2944 2939 2935 2932 2929 2925 2922 2921 2918 2918 2920 2922 2922 2924 2927 2936 2942 2949 2953 2958 2963 2966 2971 2976 2982 2989
3035 3029 3023 3017 3012 3007 3001 2996 2991 2986 2981 2976 2971 2966 2960 2955 2950 2945 2940 2937 2934 2929 2926 2923 2922 2920 2919 2917 2915 2916 2919 2921 2926 2931 2937 2941 2946 2950 2955 2959 2962 2967 2973
3034 3028 3022 3016 3011 3006 3002 2997 2991 2987 2981 2976 2971 2967 2962 2957 2952 2948 2944 2940 2936 2933 2929 2925 2922 2921 2920 2919 2917 2916 2916 2916 2918 2923 2928 2931 2935 2939 2943 2948 2952 2955 2960
3032 3027 3021 3015 3010 3005 3001 2996 2992 2988 2983 2978 2973 2968 2965 2960 2956 2950 2946 2941 2938 2936 2933 2928 2924 2922 2919 2919 2918 2919 2917 2918 2917 2918 2920 2923 2925 2928 2933 2937 2940 2942 2947
3031 3024 3019 3014 3008 3004 2999 2995 2991 2987 2984 2980 2975 2970 2965 2962 2957 2952 2948 2944 2940 2935 2931 2929 2926 2922 2918 2918 2917 2916 2919 2919 2920 2919 2916 2916 2917 2922 2926 2930 2931 2932 2935
3029 3023 3017 3012 3007 3002 2997 2993 2990 2986 2982 2979 2976 2972 2967 2962 2957 2954 2949 2945 2940 2936 2932 2928 2926 2923 2922 2920 2919 2917 2917 2917 2916 2914 2913 2914 2918 2920 2922 2922 2923 2924 2927
3027 3022 3016 3010 3005 3001 2996 2992 2988 2985 2981 2977 2973 2971 2967 2963 2959 2953 2949 2945 2941 2937 2933 2930 2927 2926 2924 2923 2921 2921 2919 2914 2910 2909 2911 2914 2916 2917 2918 2919 2919 2918 2921
3025 3019 3014 3008 3002 2998 2994 2989 2985 2982 2979 2976 2972 2968 2965 2962 2959 2955 2951 2946 2943 2940 2936 2932 2929 2926 2925 2923 2920 2917 2915 2913 2912 2911 2911 2910 2912 2913 2914 2913 2913 2915 2916
3023 3017 3011 3006 3001 2996 2992 2987 2984 2980 2976 2974 2971 2967 2963 2960 2958 2955 2952 2948 2944 2941 2938 2935 2932 2929 2925 2921 2918 2916 2915 2914 2910 2909 2910 2909 2909 2908 2908 2908 2908 2908 2910
3021 3015 3010 3004 2999 2994 2990 2986 2982 2978 2974 2971 2968 2966 2962 2959 2955 2952 2950 2948 2945 2942 2939 2936 2933 2930 2926 2924 2920 2917 2914 2912 2911 2910 2909 2907 2905 2906 2905 2905 2904 2903 2903
3019 3013 3008 3003 2998 2993 2989 2985 2980 2976 2973 2969 2966 2963 2960 2957 2954 2951 2948 2945 2943 2941 2938 2934 2931 2928 2926 2924 2921 2918 2915 2912 2910 2908 2906 2903 2904 2905 2903 2901 2899 2898 2897
3017 3012 3007 3002 2997 2992 2987 2983 2979 2975 2971 2967 2964 2961 2958 2955 2953 2950 2946 2943 2940 2938 2935 2933 2931 2928 2926 2923 2921 2918 2914 2911 2909 2907 2905 2904 2902 2902 2899 2897 2897 2895 2893
3015 3010 3005 3000 2995 2991 2986 2981 2977 2973 2970 2966 2962 2959 2956 2953 2950 2948 2945 2942 2938 2935 2933 2930 2928 2925 2923 2920 2918 2915 2913 2911 2909 2907 2906 2903 2902 2899 2897 2895 2893 2891 2889